Regional Weather Roundup
Issued by NWS Wakefield, VA

Home | Current Version | Previous Version | Text Only | Print | Product List | Glossary Off
Versions: 1 2 3 4 5 6 7 8 9 10 11 12 13 14 15 16 17 18 19 20 21 22 23 24 25 26 27 28 29 30 31 32 33 34 35 36 37 38 39 40 41 42 43 44 45 46 47 48 49 50

330
ASUS41 KAKQ 151115
RWRAKQ

REGIONAL WEATHER ROUNDUP
NATIONAL WEATHER SERVICE WAKEFIELD VA
600 AM EST FRI DEC 15 2017

Note: "fair" indicates few or no clouds below 12,000 feet with no
significant weather and/or obstructions to visibility. * = Denotes
station may not report precipitation (e.g., rain,snow,etc.),
thunder or fog.

VAZ042-051-052>054-056-151200-
NORTHERN VIRGINIA

CITY           SKY/WX    TMP DP  RH WIND       PRES   REMARKS
WASH NATIONAL  CLOUDY    30  12  47 E6        30.13R
DULLES         CLOUDY    25  19  78 CALM      30.10S
FORT BELVOIR   CLOUDY    29  11  45 CALM      30.12R
QUANTICO       CLOUDY    32  16  51 E10       30.13R WCI  24
FREDERICKSBRG* CLOUDY    31  19  62 CALM      30.10S
STAFFORD*      CLOUDY    31  17  55 CALM      30.14S
WARRENTON      CLOUDY    29  20  70 CALM      30.09S
CULPEPER*      CLOUDY    29  19  66 CALM      30.11S
MANASSAS*      CLOUDY    27  22  81 CALM      30.12R
LEESBURG*      CLOUDY    27  21  80 CALM      30.11R
WINCHESTER     CLOUDY    25  14  63 CALM      30.05F
FRONT ROYAL*   CLOUDY    27  16  63 CALM      30.04S
LURAY*         CLOUDY    28  18  64 CALM      30.04S
$$

VAZ048-049-060>072-079>083-151200-
CENTRAL AND SOUTH CENTRAL VIRGINIA

CITY           SKY/WX    TMP DP  RH WIND       PRES   REMARKS
RICHMOND       CLOUDY    33  19  56 NE6       30.07F
CHESTERFIELD*  NOT AVBL
PETERSBURG*    CLOUDY    30  19  64 NE6       30.07S
HANOVER        CLOUDY    31  18  58 NE3       30.09F
TAPPAHANNOCK*  CLOUDY    33  20  60 NE7       30.09F
QUINTON*       CLOUDY    32  20  61 NE3       30.08S
CHARLOTTSVILLE CLOUDY    30  14  51 N3        30.06F
GORDONSVILLE*  CLOUDY    28  17  61 CALM      30.08S
ORANGE*        CLOUDY    28  16  59 CALM      30.09S
LOUISA*        CLOUDY    28  15  57 N5        30.11F
BUMPASS*       CLOUDY    30  14  51 CALM      30.07F
FARMVILLE*     CLOUDY    32  23  69 N5        30.05S
CREWE*         CLOUDY    29  21  70 CALM      30.05S
FORT PICKETT*  NOT AVBL
CHASE CITY*    CLOUDY    30  19  64 NE5       30.04S
CLARKSVILLE*   PTSUNNY   30  21  69 NE3       30.03S
SOUTH HILL*    MOCLDY    29  22  75 NE5       30.09S
LAWRENCEVILLE* PTSUNNY   29  20  69 CALM      30.05S
EMPORIA*       MOCLDY    30  23  74 N5        30.07S
$$

VAZ088>098-151200-
SOUTHEAST VIRGINIA

CITY           SKY/WX    TMP DP  RH WIND       PRES   REMARKS
NORFOLK        CLEAR     37  27  67 NE14      30.05S
VIRGINIA BEACH PTCLDY    36  28  73 N12       30.04F
NORFOLK NAVAL  MOCLDY    37  24  59 NE12      30.08R
WEST POINT*    CLOUDY   N/A N/A N/A NE5       30.10S
SALUDA*        CLOUDY    33  20  58 NE3       30.08F
NEWPORT NEWS   CLEAR     33  20  58 NE8       30.07S
LANGLEY AFB    CLEAR     34  23  63 NE14      30.06S WCI  25
FORT EUSTIS    CLEAR     33  19  56 NE5       30.05R
WILLIAMSBURG*  CLEAR     30  25  80 CALM      30.08S
HR EXEC AP*    FAIR      35  25  66 NE6       30.06S
FRANKLIN*      MOCLDY    30  21  67 N3        30.05F
US460-WAKEFLD  CLEAR     29  23  78 CALM      30.06S
$$

VAZ020-022-025-037-045-151200-
WEST CENTRAL AND SOUTHWEST VIRGINIA

CITY           SKY/WX    TMP DP  RH WIND       PRES   REMARKS
STAUNTON*      CLOUDY    28  18  68 CALM      30.02F
WAYNESBORO*    CLOUDY    26  16  65 SE6       30.00S
HOT SPRINGS VA CLOUDY    23  17  77 S8        29.85F
LYNCHBURG      CLOUDY    29  18  63 NE7       30.02F
DANVILLE       CLOUDY    31  21  66 NE9       30.03S
SOUTH BOSTON*  CLOUDY    30  19  61 NE5       30.03F
MARTINSVILLE   CLOUDY    30  20  67 N5        30.04F
ROANOKE        MOCLDY    30  19  63 S5        30.02F
BLACKSBURG     PTCLDY    26  20  77 SE5       29.97F
DUBLIN*        CLEAR     24  22  91 CALM      29.96F
MARION*        CLEAR     21  18  86 CALM      29.95S
HILLSVILLE*    MOCLDY    25  22  88 CALM      29.91S
RICHLANDS*     PTSUNNY   26  22  82 CALM      29.91S
WISE*          CLOUDY    30  27  86 CALM      29.91F
ABINGDON*      CLEAR     25  23  93 CALM      29.94F
$$

MDZ021>025-VAZ099-100-151200-
SOUTHERN MARYLAND AND THE DELMARVA PENINSULA

CITY           SKY/WX    TMP DP  RH WIND       PRES   REMARKS
PATUXENT RIVER CLOUDY    30  15  53 NE8       30.11S
BAY BRIDGE APT CLOUDY    27   9  46 MISG      30.12F
LEONARDTOWN    CLOUDY    30  16  55 E3        30.12S
DOVER          CLOUDY    24  17  75 N3        30.12S
GEORGETOWN     CLOUDY    28  15  58 N3        30.13R
EASTON         MOCLDY    28  10  47 E6        30.15F
CAMBRIDGE      CLOUDY    28  10  47 CALM      30.13R
SALISBURY      CLOUDY    28  16  60 NE5       30.11S
OCEAN CITY     CLOUDY    29  19  66 N6        30.11F
WALLOPS ISLAND CLOUDY    30  17  58 N7        30.10F
ACCOMACK*      CLOUDY    30  18  59 N7        30.08F
$$

NCZ012>017-030>032-151200-
NORTH CENTRAL AND EASTERN NORTH CAROLINA

CITY           SKY/WX    TMP DP  RH WIND       PRES   REMARKS
ROANOKE RAPIDS FAIR      32  25  74 CALM      30.04S
RALEIGH        CLOUDY    34  26  72 E8        29.99F
ELIZABETH CITY CLOUDY    37  35  92 N7        30.03S
AHOSKIE*       PTCLDY    32  23  71 N3        30.03F
EDENTON*       CLOUDY    37  32  81 NE6       30.02F
CURRITUCK*     CLOUDY    42  37  80 CALM      30.03F
KILL DEVIL HLS CLOUDY    47  39  72 E6        30.00S
MANTEO         CLOUDY    47  41  79 E8        30.01F
CAPE HATTERAS  PTCLDY    48  45  89 N5        29.99S
TARBORO*       NOT AVBL
GOLDSBORO      CLOUDY    36  29  78 NE6       29.98S
WASHINGTON     CLOUDY    36  32  85 NE5       30.00F
GREENVILLE     MOCLDY    34  30  86 N6        30.02F
NEW BERN       CLOUDY    38  38 100 CALM      30.01F
WILMINGTON     PTCLDY    39  37  92 CALM      29.99S
$$

VAZ048-151200-
ELSEWHERE

CITY           SKY/WX    TMP DP  RH WIND       PRES   REMARKS
HARRISBURG PA  MOCLDY    23  12  62 CALM      30.09R
BALTIMORE      CLOUDY    26  14  60 E3        30.11S
ANNAPOLIS      CLOUDY    29  15  56 E5        30.12S
ANDREWS AFB    CLOUDY    27  11  51 E3        30.13R
PHILADELPHIA   CLOUDY    25  11  55 CALM      30.13S
HENDERSON NC   CLOUDY    29  20  70 NE9       30.01F
GREENSBORO     CLOUDY    32  23  69 N8        29.98S
ROCKY MOUNT    CLOUDY    34  26  72 NE7       30.01F
$$

VAZ100-151200-
MARINE

STATION/POSITION TIME  TEMP    WIND        PRES    WAVE   SWELL
                       AIR SEA DIR/SP/G            HT/PER HT/PER
                 (UTC) (F)     (DEG/KT/KT) (MB)    (FT/S) (FT/S)
BRANDYWINE LGT   1036   28      60/  9/ 12 1020.4S
CAPE MAY NJ      1042   25 41   50/  5/  7 1019.8S
LEWES DE         1036   30 41   50/  6/ 10 1020.0R
15NM E FENWICK I 0950   35 52  360/  8/ 12 1019.7    3/ 5   2/ 5
OCEAN-CITY-INLET 1036   32 45   20/  7/  9 1019.9F
WACHAPREAGUE VA  1036   30 38   20/  6/  9 1018.5F
THOMAS POINT MD  1100   28 43   80/ 11/ 13   N/A
GOOSES REEF MD   1100   30 43  110/ 10/ 12 1020.3    1/ 2
COVE POINT MD    1036   29      70/ 11/ 13 1020.4R
SOLOMONS ISLAND  1036   31 45   50/  8/ 11 1019.4R
BISHOPS HEAD MD  1036   29 35   40/  8/ 11 1019.8R
PINEY POINT MD   1048           80/  6/  7   N/A
POTOMAC MD       1100   33 46   80/ 12/ 14 1018.6    1
CAMBRIDGE MD     1042   28 39              1020.8R
LEWISETTA VA     1036   33 40   90/ 10/ 13 1019.2F
RAPPAHANNOCK LGT 1036           40/ 17/ 18 1019.0F
STINGRAY PT      1100   35 45   80/ 14/ 17 1018.8    2/ 3
YORK RVR RNG VA  1036   36      50/ 19/ 22 1018.7R
YORKTOWN VA      1036   35 46   40/ 11/ 13 1017.9F
JAMESTOWN VA     1100      44   60/  4/  6   N/A     0
DOMINION TERM VA 1036   36      40/  4/  8 1017.9F
KIPTOPEKE VA     1036      45   40/  7/ 10   N/A
CAPE HENRY VA    1036   37      30/ 18/ 22   N/A
WILLOUBY STN VA  1036           50/ 19/ 21 1017.6F
S CRANEY ISL VA  1036   38      50/ 14/ 17 1017.5R
CAPE HENRY BUOY  1030      53                N/A     3/ 5
1ST LANDING BUOY 1100   36 47   50/ 17/ 19 1017.6    2/ 3
CAPE CHARLES BUO 1051      51                N/A     4/ 3
64NM E OF VA BCH 0950   47 59   60/ 12/ 14 1017.2    4/ 7   3/ 7
DUCK PIER NC     1036   49 52   80/ 12/ 15 1016.0R
44100 DUCK FRF   1015      54                N/A     4/ 5
44056 DUCK FRF   1030      55                N/A     4/ 5
OREGON INLET NC  1036   50 44   40/  7/ 11 1015.9S
HATTERAS NC      1036   50 53   20/  5/  6 1015.3R
DIAMOND SHLS NC  1050   60 74  100/  2/  8 1015.2S   4/ 8   3/ 8
CAPE LOOKOUT NC  1100           10/  5/  6 1015.7S
$$




USA.gov is the U.S. government's official web portal to all federal, state and local government web resources and services.